LNI789 WAJJ-WAUU

Flight info

Callsign LNI789
Flight time 1h 7m
Altitude 34000
Route KUBIA W41 BIK
Aircraft B738/M-SDE2E3FGHIRWXY/LB1

Departure

Time 2026-05-06 09:05
Airport Dortheys Hiyo Eluay International Airport (WAJJ)

Arrival

Time 2026-05-06 10:12
Airport Rendani Airport (WAUU)
Time Latitude Longitude Altitude Speed Heading
2026-05-06 08:44 -2.57125 140.51277 297 ft 0 kts 36°
2026-05-06 08:53 -2.57135 140.51270 299 ft 4 kts 31°
2026-05-06 08:54 -2.57159 140.51258 297 ft 4 kts 16°
2026-05-06 08:54 -2.57185 140.51253 297 ft 4 kts 356°
2026-05-06 08:54 -2.57210 140.51260 297 ft 4 kts 319°
2026-05-06 08:54 -2.57216 140.51265 297 ft 0 kts 306°
2026-05-06 08:57 -2.57199 140.51242 301 ft 9 kts 306°
2026-05-06 08:57 -2.57157 140.51186 301 ft 10 kts 307°
2026-05-06 08:58 -2.57114 140.51128 300 ft 10 kts 307°
2026-05-06 08:58 -2.57114 140.51072 301 ft 0 kts 230°
2026-05-06 09:02 -2.57131 140.51052 299 ft 8 kts 230°
2026-05-06 09:02 -2.57168 140.51010 300 ft 8 kts 226°
2026-05-06 09:02 -2.57189 140.50965 301 ft 8 kts 285°
2026-05-06 09:02 -2.57164 140.50920 302 ft 7 kts 282°
2026-05-06 09:03 -2.57155 140.50870 301 ft 7 kts 301°
2026-05-06 09:03 -2.57128 140.50870 299 ft 1 kts 57°
2026-05-06 09:03 -2.57130 140.50880 299 ft 3 kts 98°
2026-05-06 09:03 -2.57139 140.50898 301 ft 0 kts 125°
2026-05-06 09:04 -2.57140 140.50900 299 ft 2 kts 125°
2026-05-06 09:04 -2.57260 140.51061 301 ft 66 kts 127°
2026-05-06 09:04 -2.57683 140.51627 301 ft 135 kts 126°
2026-05-06 09:05 -2.58340 140.52519 457 ft 177 kts 126°
2026-05-06 09:05 -2.59070 140.53516 1245 ft 179 kts 126°
2026-05-06 09:05 -2.59823 140.54543 1972 ft 184 kts 124°
2026-05-06 09:05 -2.60613 140.55611 2452 ft 208 kts 127°
2026-05-06 09:06 -2.61542 140.56832 2684 ft 233 kts 127°
2026-05-06 09:06 -2.62556 140.58175 3036 ft 253 kts 126°
2026-05-06 09:06 -2.63647 140.59627 3491 ft 269 kts 127°
2026-05-06 09:06 -2.64999 140.60894 4311 ft 273 kts 153°
2026-05-06 09:07 -2.66832 140.61332 5214 ft 275 kts 182°
2026-05-06 09:07 -2.68673 140.60842 6051 ft 279 kts 210°
2026-05-06 09:07 -2.70083 140.59523 6865 ft 283 kts 238°
2026-05-06 09:07 -2.70699 140.57654 7621 ft 289 kts 268°
2026-05-06 09:08 -2.70297 140.55723 8356 ft 292 kts 296°
2026-05-06 09:08 -2.69327 140.53922 9124 ft 296 kts 299°
2026-05-06 09:08 -2.68230 140.52165 9820 ft 301 kts 312°
2026-05-06 09:08 -2.66503 140.50998 10391 ft 309 kts 342°
2026-05-06 09:09 -2.64305 140.50723 10582 ft 330 kts
2026-05-06 09:09 -2.61948 140.50682 10754 ft 346 kts 356°
2026-05-06 09:09 -2.59502 140.50506 11148 ft 356 kts 352°
2026-05-06 09:09 -2.57178 140.49680 11819 ft 359 kts 326°
2026-05-06 09:10 -2.55480 140.47885 12562 ft 359 kts 300°
2026-05-06 09:10 -2.54617 140.45533 13194 ft 363 kts 284°
2026-05-06 09:10 -2.54122 140.43041 13716 ft 369 kts 280°
2026-05-06 09:10 -2.53667 140.40491 14263 ft 374 kts 281°
2026-05-06 09:11 -2.53149 140.37931 14846 ft 377 kts 283°
2026-05-06 09:11 -2.52547 140.35366 15415 ft 381 kts 284°
2026-05-06 09:11 -2.51859 140.32803 15907 ft 384 kts 286°
2026-05-06 09:11 -2.51123 140.30208 16380 ft 390 kts 287°
2026-05-06 09:12 -2.50354 140.27603 16939 ft 392 kts 287°
2026-05-06 09:12 -2.49564 140.24984 17456 ft 395 kts 288°
2026-05-06 09:12 -2.48754 140.22345 17918 ft 399 kts 288°
2026-05-06 09:12 -2.47933 140.19684 18374 ft 402 kts 288°
2026-05-06 09:13 -2.47102 140.17001 18857 ft 405 kts 288°
2026-05-06 09:13 -2.46225 140.14311 19352 ft 408 kts 288°
2026-05-06 09:13 -2.45394 140.11594 19858 ft 409 kts 288°
2026-05-06 09:13 -2.44562 140.08866 20315 ft 412 kts 288°
2026-05-06 09:14 -2.43720 140.06119 20733 ft 414 kts 288°
2026-05-06 09:14 -2.42881 140.03360 21184 ft 415 kts 287°
2026-05-06 09:14 -2.42044 140.00588 21527 ft 419 kts 288°
2026-05-06 09:14 -2.41176 139.97801 21901 ft 421 kts 288°
2026-05-06 09:15 -2.40297 139.94999 22317 ft 423 kts 288°
2026-05-06 09:15 -2.39417 139.92190 22731 ft 424 kts 288°
2026-05-06 09:15 -2.38538 139.89371 23102 ft 426 kts 288°
2026-05-06 09:15 -2.37655 139.86535 23456 ft 428 kts 288°
2026-05-06 09:16 -2.36771 139.83687 23789 ft 430 kts 288°
2026-05-06 09:16 -2.35883 139.80824 24113 ft 432 kts 288°
2026-05-06 09:16 -2.34992 139.77951 24425 ft 434 kts 288°
2026-05-06 09:16 -2.34096 139.75063 24724 ft 436 kts 288°
2026-05-06 09:17 -2.33194 139.72157 25019 ft 438 kts 288°
2026-05-06 09:17 -2.32289 139.69238 25296 ft 440 kts 288°
2026-05-06 09:17 -2.31380 139.66306 25581 ft 443 kts 288°
2026-05-06 09:17 -2.30464 139.63359 25882 ft 444 kts 288°
2026-05-06 09:18 -2.29546 139.60401 26156 ft 446 kts 288°
2026-05-06 09:18 -2.28624 139.57431 26404 ft 448 kts 288°
2026-05-06 09:18 -2.27696 139.54446 26669 ft 451 kts 288°
2026-05-06 09:18 -2.26764 139.51447 26949 ft 453 kts 288°
2026-05-06 09:19 -2.25829 139.48436 27204 ft 454 kts 288°
2026-05-06 09:19 -2.24890 139.45411 27439 ft 456 kts 288°
2026-05-06 09:19 -2.23949 139.42374 27678 ft 458 kts 288°
2026-05-06 09:19 -2.23006 139.39325 27920 ft 460 kts 288°
2026-05-06 09:20 -2.22056 139.36266 28133 ft 462 kts 288°
2026-05-06 09:20 -2.21102 139.33194 28349 ft 463 kts 288°
2026-05-06 09:20 -2.20143 139.30110 28562 ft 465 kts 288°
2026-05-06 09:20 -2.19182 139.27017 28778 ft 467 kts 288°
2026-05-06 09:21 -2.18216 139.23913 28988 ft 469 kts 288°
2026-05-06 09:21 -2.17248 139.20800 29185 ft 470 kts 288°
2026-05-06 09:21 -2.16276 139.17672 29392 ft 472 kts 288°
2026-05-06 09:21 -2.15302 139.14535 29575 ft 473 kts 288°
2026-05-06 09:22 -2.14325 139.11391 29767 ft 475 kts 288°
2026-05-06 09:22 -2.13344 139.08234 29944 ft 476 kts 288°
2026-05-06 09:22 -2.12374 139.05112 30125 ft 477 kts 288°
2026-05-06 09:22 -2.11388 139.01943 30348 ft 477 kts 288°
2026-05-06 09:23 -2.10406 138.98779 30593 ft 477 kts 288°
2026-05-06 09:23 -2.09425 138.95619 30838 ft 476 kts 288°
2026-05-06 09:23 -2.08439 138.92453 31034 ft 478 kts 288°
2026-05-06 09:23 -2.07441 138.89287 31297 ft 477 kts 288°
2026-05-06 09:24 -2.06439 138.86134 31602 ft 475 kts 288°
2026-05-06 09:24 -2.05436 138.82987 31854 ft 475 kts 288°
2026-05-06 09:24 -2.04434 138.79843 32109 ft 475 kts 288°
2026-05-06 09:24 -2.03432 138.76698 32385 ft 475 kts 288°
2026-05-06 09:25 -2.02432 138.73557 32662 ft 473 kts 288°
2026-05-06 09:25 -2.01436 138.70421 32874 ft 474 kts 288°
2026-05-06 09:25 -2.00435 138.67275 33066 ft 475 kts 288°
2026-05-06 09:25 -1.99435 138.64124 33321 ft 475 kts 288°
2026-05-06 09:26 -1.98438 138.60985 33608 ft 474 kts 288°
2026-05-06 09:26 -1.97444 138.57856 33834 ft 473 kts 288°
2026-05-06 09:26 -1.96444 138.54708 33804 ft 476 kts 288°
2026-05-06 09:27 -1.94470 138.48488 33804 ft 474 kts 288°
2026-05-06 09:27 -1.92457 138.42152 33815 ft 472 kts 288°
2026-05-06 09:28 -1.90475 138.35916 33812 ft 470 kts 288°
2026-05-06 09:28 -1.88495 138.29688 33818 ft 470 kts 288°
2026-05-06 09:29 -1.86517 138.23470 33811 ft 470 kts 288°
2026-05-06 09:29 -1.84539 138.17247 33819 ft 470 kts 287°
2026-05-06 09:30 -1.82894 138.12067 33823 ft 471 kts 288°
2026-05-06 09:30 -1.80905 138.05811 33827 ft 473 kts 288°
2026-05-06 09:31 -1.78908 137.99536 33830 ft 475 kts 288°
2026-05-06 09:31 -1.76904 137.93232 33823 ft 476 kts 287°
2026-05-06 09:32 -1.74898 137.86917 33825 ft 477 kts 287°
2026-05-06 09:32 -1.72891 137.80596 33830 ft 477 kts 287°
2026-05-06 09:33 -1.70884 137.74266 33822 ft 477 kts 287°
2026-05-06 09:33 -1.68880 137.67943 33827 ft 477 kts 287°
2026-05-06 09:34 -1.66873 137.61621 33823 ft 477 kts 288°
2026-05-06 09:34 -1.64883 137.55346 33825 ft 476 kts 287°
2026-05-06 09:35 -1.62883 137.49039 33824 ft 476 kts 287°
2026-05-06 09:35 -1.60880 137.42734 33823 ft 476 kts 287°
2026-05-06 09:36 -1.58878 137.36433 33823 ft 475 kts 287°
2026-05-06 09:36 -1.56881 137.30149 33825 ft 474 kts 288°
2026-05-06 09:37 -1.54889 137.23874 33825 ft 473 kts 287°
2026-05-06 09:37 -1.52896 137.17607 33821 ft 473 kts 287°
2026-05-06 09:38 -1.50910 137.11352 33843 ft 472 kts 287°
2026-05-06 09:38 -1.48922 137.05093 33851 ft 472 kts 287°
2026-05-06 09:39 -1.46936 136.98843 33854 ft 473 kts 287°
2026-05-06 09:39 -1.44945 136.92581 33854 ft 473 kts 287°
2026-05-06 09:40 -1.42950 136.86303 33849 ft 474 kts 287°
2026-05-06 09:40 -1.39961 136.76888 33863 ft 474 kts 287°
2026-05-06 09:41 -1.37962 136.70597 33862 ft 475 kts 288°
2026-05-06 09:41 -1.35959 136.64299 33862 ft 476 kts 288°
2026-05-06 09:42 -1.33949 136.57985 33865 ft 477 kts 288°
2026-05-06 09:42 -1.31938 136.51661 33863 ft 478 kts 288°
2026-05-06 09:43 -1.29925 136.45333 33861 ft 478 kts 288°
2026-05-06 09:43 -1.27915 136.39011 33860 ft 477 kts 288°
2026-05-06 09:44 -1.25907 136.32697 33857 ft 476 kts 288°
2026-05-06 09:44 -1.23902 136.26399 33861 ft 476 kts 288°
2026-05-06 09:45 -1.21900 136.20101 33861 ft 476 kts 288°
2026-05-06 09:45 -1.19912 136.13849 33861 ft 475 kts 287°
2026-05-06 09:46 -1.17963 136.07547 33855 ft 475 kts 283°
2026-05-06 09:46 -1.16879 136.01050 33855 ft 474 kts 277°
2026-05-06 09:47 -1.16091 135.94493 33865 ft 475 kts 277°
2026-05-06 09:47 -1.15239 135.87941 33860 ft 476 kts 277°
2026-05-06 09:48 -1.14311 135.81394 33747 ft 478 kts 278°
2026-05-06 09:48 -1.13830 135.78089 33236 ft 480 kts 278°
2026-05-06 09:48 -1.13352 135.74814 32775 ft 474 kts 278°
2026-05-06 09:49 -1.12879 135.71571 32296 ft 470 kts 278°
2026-05-06 09:49 -1.12410 135.68354 31822 ft 465 kts 278°
2026-05-06 09:49 -1.11946 135.65169 31351 ft 461 kts 278°
2026-05-06 09:49 -1.11489 135.62015 30886 ft 457 kts 278°
2026-05-06 09:50 -1.11035 135.58888 30422 ft 453 kts 278°
2026-05-06 09:50 -1.10586 135.55783 29963 ft 449 kts 278°
2026-05-06 09:50 -1.10139 135.52704 29499 ft 445 kts 278°
2026-05-06 09:50 -1.09697 135.49661 29036 ft 441 kts 278°
2026-05-06 09:51 -1.09259 135.46637 28562 ft 437 kts 279°
2026-05-06 09:51 -1.08826 135.43655 28095 ft 434 kts 279°
2026-05-06 09:51 -1.08395 135.40684 27630 ft 430 kts 279°
2026-05-06 09:51 -1.07967 135.37734 27169 ft 427 kts 279°
2026-05-06 09:52 -1.07543 135.34811 26707 ft 423 kts 279°
2026-05-06 09:52 -1.07122 135.31913 26247 ft 420 kts 279°
2026-05-06 09:52 -1.06703 135.29028 25790 ft 417 kts 279°
2026-05-06 09:52 -1.06290 135.26175 25336 ft 413 kts 279°
2026-05-06 09:53 -1.05879 135.23344 24882 ft 410 kts 279°
2026-05-06 09:53 -1.05472 135.20536 24436 ft 407 kts 279°
2026-05-06 09:53 -1.05066 135.17746 23989 ft 404 kts 279°
2026-05-06 09:53 -1.04668 135.15011 23551 ft 401 kts 279°
2026-05-06 09:54 -1.04262 135.12228 23105 ft 399 kts 279°
2026-05-06 09:54 -1.03863 135.09489 22665 ft 396 kts 279°
2026-05-06 09:54 -1.03475 135.06818 22233 ft 393 kts 279°
2026-05-06 09:54 -1.03085 135.04128 21798 ft 390 kts 279°
2026-05-06 09:55 -1.02697 135.01455 21369 ft 387 kts 279°
2026-05-06 09:55 -1.02312 134.98801 20945 ft 384 kts 279°
2026-05-06 09:55 -1.01931 134.96174 20525 ft 380 kts 279°
2026-05-06 09:55 -1.01553 134.93570 20093 ft 378 kts 279°
2026-05-06 09:56 -1.01173 134.90972 19660 ft 377 kts 279°
2026-05-06 09:56 -1.00798 134.88391 19249 ft 374 kts 279°
2026-05-06 09:56 -1.00427 134.85832 18839 ft 371 kts 279°
2026-05-06 09:56 -1.00058 134.83284 18422 ft 369 kts 278°
2026-05-06 09:57 -0.99691 134.80752 17999 ft 367 kts 278°
2026-05-06 09:57 -0.99325 134.78239 17601 ft 365 kts 278°
2026-05-06 09:57 -0.98962 134.75741 17192 ft 363 kts 278°
2026-05-06 09:57 -0.98602 134.73256 16790 ft 360 kts 279°
2026-05-06 09:58 -0.98244 134.70791 16389 ft 358 kts 279°
2026-05-06 09:58 -0.97887 134.68337 15991 ft 355 kts 279°
2026-05-06 09:58 -0.97533 134.65903 15592 ft 353 kts 279°
2026-05-06 09:58 -0.97194 134.63571 15209 ft 351 kts 279°
2026-05-06 09:59 -0.96872 134.61357 14858 ft 348 kts 279°
2026-05-06 09:59 -0.96521 134.58976 14466 ft 345 kts 279°
2026-05-06 09:59 -0.96176 134.56619 14074 ft 341 kts 278°
2026-05-06 09:59 -0.95833 134.54278 13688 ft 340 kts 278°
2026-05-06 10:00 -0.95503 134.51943 13304 ft 338 kts 278°
2026-05-06 10:00 -0.95185 134.49727 12944 ft 335 kts 278°
2026-05-06 10:00 -0.95188 134.47413 12529 ft 335 kts 257°
2026-05-06 10:00 -0.96126 134.45308 12184 ft 333 kts 234°
2026-05-06 10:01 -0.97791 134.43726 11804 ft 332 kts 213°
2026-05-06 10:01 -0.99897 134.42808 11446 ft 330 kts 198°
2026-05-06 10:01 -1.02078 134.42119 11067 ft 328 kts 199°
2026-05-06 10:01 -1.04195 134.41362 10675 ft 327 kts 202°
2026-05-06 10:02 -1.06272 134.40471 10434 ft 320 kts 205°
2026-05-06 10:02 -1.08230 134.39491 10380 ft 304 kts 208°
2026-05-06 10:02 -1.10034 134.38503 10257 ft 296 kts 211°
2026-05-06 10:02 -1.11751 134.37425 10141 ft 287 kts 215°
2026-05-06 10:03 -1.13369 134.36318 10028 ft 278 kts 216°
2026-05-06 10:03 -1.14880 134.35163 9765 ft 275 kts 220°
2026-05-06 10:03 -1.16316 134.33908 9502 ft 273 kts 224°
2026-05-06 10:03 -1.17668 134.32586 9229 ft 271 kts 226°
2026-05-06 10:04 -1.18947 134.31209 8962 ft 269 kts 233°
2026-05-06 10:04 -1.19707 134.29535 8668 ft 266 kts 262°
2026-05-06 10:04 -1.19601 134.27710 8386 ft 264 kts 286°
2026-05-06 10:04 -1.18764 134.26067 7925 ft 265 kts 308°
2026-05-06 10:05 -1.17436 134.24787 7507 ft 269 kts 322°
2026-05-06 10:05 -1.15921 134.23657 6991 ft 276 kts 323°
2026-05-06 10:05 -1.14376 134.22522 6381 ft 274 kts 322°
2026-05-06 10:05 -1.12858 134.21382 5745 ft 272 kts 322°
2026-05-06 10:06 -1.11360 134.20243 5120 ft 269 kts 322°
2026-05-06 10:06 -1.09918 134.19096 4712 ft 258 kts 315°
2026-05-06 10:06 -1.08923 134.17701 4573 ft 237 kts 299°
2026-05-06 10:06 -1.08094 134.16277 4048 ft 236 kts 300°
2026-05-06 10:07 -1.07271 134.14905 3756 ft 225 kts 301°
2026-05-06 10:07 -1.06486 134.13607 3520 ft 212 kts 301°
2026-05-06 10:07 -1.05742 134.12383 3289 ft 200 kts 301°
2026-05-06 10:07 -1.05035 134.11224 3092 ft 191 kts 301°
2026-05-06 10:08 -1.04269 134.10176 2870 ft 186 kts 322°
2026-05-06 10:08 -1.03164 134.09500 2683 ft 188 kts 328°
2026-05-06 10:08 -1.02062 134.08835 2444 ft 180 kts 328°
2026-05-06 10:08 -1.01032 134.08206 2241 ft 165 kts 328°
2026-05-06 10:09 -1.00084 134.07627 2017 ft 155 kts 328°
2026-05-06 10:09 -0.99189 134.07077 1876 ft 150 kts 327°
2026-05-06 10:09 -0.98292 134.06526 1673 ft 149 kts 327°
2026-05-06 10:09 -0.97420 134.05990 1476 ft 149 kts 328°
2026-05-06 10:10 -0.96535 134.05448 1312 ft 149 kts 328°
2026-05-06 10:10 -0.95558 134.05121 1133 ft 149 kts 354°
2026-05-06 10:10 -0.94517 134.05053 950 ft 151 kts 356°
2026-05-06 10:10 -0.93480 134.05007 804 ft 146 kts 356°
2026-05-06 10:11 -0.92477 134.04960 521 ft 145 kts 355°
2026-05-06 10:11 -0.91461 134.04944 376 ft 141 kts 357°
2026-05-06 10:11 -0.90502 134.04924 162 ft 136 kts 358°
2026-05-06 10:11 -0.89601 134.04905 41 ft 120 kts 359°
2026-05-06 10:12 -0.88974 134.04877 47 ft 58 kts 358°
2026-05-06 10:12 -0.88822 134.04872 45 ft 5 kts 358°
2026-05-06 10:12 -0.88785 134.04886 45 ft 6 kts 52°
2026-05-06 10:12 -0.88775 134.04928 46 ft 6 kts 90°
2026-05-06 10:13 -0.88775 134.04971 46 ft 6 kts 89°
2026-05-06 10:13 -0.88775 134.05013 46 ft 6 kts 89°
2026-05-06 10:13 -0.88799 134.05043 45 ft 6 kts 159°
2026-05-06 10:13 -0.88829 134.05039 47 ft 3 kts 230°
2026-05-06 10:14 -0.88833 134.05019 47 ft 4 kts 264°
2026-05-06 10:14 -0.88841 134.04993 47 ft 4 kts 225°
2026-05-06 10:14 -0.88869 134.04986 47 ft 4 kts 187°
2026-05-06 10:14 -0.88884 134.04993 47 ft 1 kts 118°
2026-05-06 10:15 -0.88887 134.05003 47 ft 2 kts 102°
2026-05-06 10:15 -0.88888 134.05014 47 ft 0 kts 94°